Bellefontaine, OH

4:37 PM EST on February 27, 2017 (GMT -0500)
Bellefontaine

Weather History for KEDJ - June, 2013

Change the Weather History Date:

Wednesday, June 26, 2013

  Actual Average (KDAY) Record (KDAY)
Temperature  
Mean Temperature 74 °F -  
Max Temperature 84 °F 84 °F 98 °F (1954)
Min Temperature 64 °F 61 °F 49 °F (1902)
Cooling Degree Days 9    
Growing Degree Days 24 (Base 50)    
Moisture  
Dew Point 67 °F    
Average Humidity 85    
Maximum Humidity 100    
Minimum Humidity 61    
Precipitation  
Precipitation 2.77 in - - ()
Sea Level Pressure  
Sea Level Pressure 29.86 in    
Wind  
Wind Speed 8 mph (South)    
Max Wind Speed 24 mph    
Max Gust Speed 39 mph    
Visibility 10 miles    
Events      
Averages and records for this station are not official NWS values.
T = Trace of Precipitation, MM = Missing Value Source: NWS Daily Summary

Daily Weather History Graph

Daily Weather History Graph

Search for Another Location

Airport or City:

Trip Planner

Search our weather history database for the weather conditions in past years. The results will help you decide how hot, cold, wet, or windy it might be!

Date:

Astronomy

Jun. 26, 2013 Rise Set
Actual Time 6:06 AM EDT 9:09 PM EDT
Civil Twilight 5:33 AM EDT 9:42 PM EDT
Nautical Twilight 4:51 AM EDT 10:24 PM EDT
Astronomical Twilight 4:02 AM EDT 11:13 PM EDT
Moon 11:31 PM EDT (6/26) 9:58 AM EDT (6/26)
Length of Visible Light 16h 08m
Length of Day
15h 02m
Waning Gibbous, 85% of the Moon is Illuminated
Jun 26
Waning Gibbous
Jun 30
Last Quarter
Jul 8
New
Jul 15
First Quarter
Jul 22
Full

Hourly Weather History & Observations

Time (EDT) Temp. Heat Index Dew Point Humidity Pressure Visibility Wind Dir Wind Speed Gust Speed Precip Events Conditions
12:00 AM 77.0 °F - 69.8 °F 78% 29.90 in 10.0 mi SSW 8.1 mph - 0.00 in   Mostly Cloudy
12:20 AM 77.0 °F - 69.8 °F 78% 29.88 in 10.0 mi South 5.8 mph - 0.00 in   Mostly Cloudy
12:40 AM 75.2 °F - 71.6 °F 89% 29.91 in 3.0 mi NNW 24.2 mph 39.1 mph 0.06 in   Overcast
1:00 AM 68.0 °F - 66.2 °F 94% 29.96 in 10.0 mi North 9.2 mph - 0.10 in   Overcast
1:20 AM 66.2 °F - 66.2 °F 100% 29.91 in 1.0 mi NE 16.1 mph - 0.98 in   Overcast
1:40 AM 66.2 °F - 66.2 °F 100% 29.94 in 1.0 mi NE 5.8 mph - 1.38 in   Overcast
2:00 AM 66.2 °F - 66.2 °F 100% 29.93 in 10.0 mi NE 11.5 mph - 1.39 in   Scattered Clouds
2:20 AM 66.2 °F - 66.2 °F 100% 29.91 in 10.0 mi NE 8.1 mph - 0.00 in   Clear
2:40 AM 66.2 °F - 66.2 °F 100% 29.90 in 10.0 mi ENE 5.8 mph - 0.00 in   Clear
3:00 AM 66.2 °F - 66.2 °F 100% 29.91 in 10.0 mi ENE 4.6 mph - 0.00 in   Partly Cloudy
3:20 AM 64.4 °F - 64.4 °F 100% 29.90 in 10.0 mi Calm Calm - 0.00 in   Scattered Clouds
3:40 AM 64.4 °F - 64.4 °F 100% 29.89 in 10.0 mi SE 6.9 mph - 0.00 in   Scattered Clouds
4:00 AM 66.2 °F - 66.2 °F 100% 29.90 in 10.0 mi South 4.6 mph - 0.00 in   Partly Cloudy
4:20 AM 64.4 °F - 64.4 °F 100% 29.90 in 10.0 mi Calm Calm - 0.00 in   Partly Cloudy
4:40 AM 64.4 °F - 64.4 °F 100% 29.90 in 10.0 mi South 4.6 mph - 0.00 in   Partly Cloudy
5:00 AM 64.4 °F - 64.4 °F 100% 29.90 in 10.0 mi SSE 6.9 mph - 0.00 in   Partly Cloudy
5:20 AM 64.4 °F - 64.4 °F 100% 29.90 in 10.0 mi South 10.4 mph - 0.00 in   Partly Cloudy
5:40 AM 64.4 °F - 64.4 °F 100% 29.90 in 10.0 mi South 10.4 mph - 0.00 in   Partly Cloudy
6:00 AM 64.4 °F - 64.4 °F 100% 29.90 in 10.0 mi South 10.4 mph - 0.00 in   Clear
6:20 AM 66.2 °F - 66.2 °F 100% 29.91 in 10.0 mi South 9.2 mph - 0.00 in   Clear
6:40 AM 66.2 °F - 66.2 °F 100% 29.91 in 10.0 mi SSE 9.2 mph - 0.00 in   Clear
7:00 AM 66.2 °F - 66.2 °F 100% 29.89 in 10.0 mi SSE 8.1 mph - 0.00 in   Clear
7:20 AM 66.2 °F - 66.2 °F 100% 29.89 in 10.0 mi SSE 8.1 mph - 0.00 in   Clear
7:40 AM 66.2 °F - 66.2 °F 100% 29.90 in 10.0 mi South 6.9 mph - 0.00 in   Partly Cloudy
8:00 AM 66.2 °F - 66.2 °F 100% 29.91 in 10.0 mi South 6.9 mph - 0.00 in   Partly Cloudy
8:20 AM 68.0 °F - 68.0 °F 100% 29.91 in 10.0 mi SSW 9.2 mph - 0.00 in   Partly Cloudy
8:40 AM 69.8 °F - 69.8 °F 100% 29.91 in 10.0 mi WSW 8.1 mph - 0.00 in   Clear
9:00 AM 71.6 °F - 68.0 °F 88% 29.90 in 10.0 mi SW 8.1 mph - 0.00 in   Clear
9:20 AM 71.6 °F - 66.2 °F 83% 29.90 in 10.0 mi SW 9.2 mph - 0.00 in   Clear
9:40 AM 73.4 °F - 66.2 °F 78% 29.90 in 10.0 mi SW 11.5 mph - 0.00 in   Clear
10:00 AM 75.2 °F - 66.2 °F 73% 29.89 in 10.0 mi SW 9.2 mph - 0.00 in   Clear
10:20 AM 73.4 °F - 66.2 °F 78% 29.90 in 10.0 mi SW 8.1 mph - 0.00 in   Scattered Clouds
10:40 AM 75.2 °F - 66.2 °F 73% 29.90 in 10.0 mi SW 11.5 mph - 0.00 in   Scattered Clouds
11:00 AM 75.2 °F - 64.4 °F 69% 29.91 in 10.0 mi WSW 6.9 mph - 0.00 in   Mostly Cloudy
11:20 AM 78.8 °F - 66.2 °F 65% 29.91 in 10.0 mi SW 10.4 mph - 0.00 in   Partly Cloudy
11:40 AM 80.6 °F 82.7 °F 66.2 °F 61% 29.91 in 10.0 mi WSW 13.8 mph 18.4 mph 0.00 in   Partly Cloudy
12:00 PM 78.8 °F - 66.2 °F 65% 29.91 in 10.0 mi SW 9.2 mph - 0.00 in   Partly Cloudy
12:20 PM 78.8 °F - 66.2 °F 65% 29.91 in 10.0 mi SW 11.5 mph - 0.00 in   Partly Cloudy
12:40 PM 80.6 °F 83.2 °F 68.0 °F 65% 29.90 in 10.0 mi WSW 8.1 mph - 0.00 in   Partly Cloudy
1:00 PM 80.6 °F 83.2 °F 68.0 °F 65% 29.89 in 10.0 mi SW 4.6 mph - 0.00 in   Scattered Clouds
1:20 PM 80.6 °F 83.9 °F 69.8 °F 70% 29.88 in 10.0 mi WSW 6.9 mph - 0.00 in   Mostly Cloudy
1:40 PM 80.6 °F 83.9 °F 69.8 °F 70% 29.87 in 10.0 mi SW 6.9 mph - 0.00 in   Mostly Cloudy
2:00 PM 80.6 °F 83.9 °F 69.8 °F 70% 29.87 in 10.0 mi South 5.8 mph - 0.00 in   Overcast
2:20 PM 80.6 °F 83.9 °F 69.8 °F 70% 29.86 in 10.0 mi SSW 9.2 mph - 0.00 in   Mostly Cloudy
2:40 PM 80.6 °F 83.9 °F 69.8 °F 70% 29.85 in 10.0 mi SSW 6.9 mph - 0.00 in   Mostly Cloudy
3:00 PM 82.4 °F 87.2 °F 71.6 °F 70% 29.84 in 10.0 mi SSE 6.9 mph - 0.00 in   Mostly Cloudy
3:20 PM 82.4 °F 87.2 °F 71.6 °F 70% 29.83 in 10.0 mi South 12.7 mph - 0.00 in   Mostly Cloudy
3:40 PM 84.2 °F 89.6 °F 71.6 °F 66% 29.82 in 10.0 mi South 11.5 mph - 0.00 in   Mostly Cloudy
4:00 PM 82.4 °F 87.2 °F 71.6 °F 70% 29.82 in 10.0 mi South 12.7 mph 16.1 mph 0.00 in   Scattered Clouds
4:20 PM 80.6 °F 84.6 °F 71.6 °F 74% 29.81 in 10.0 mi SSW 15.0 mph - 0.00 in   Scattered Clouds
4:40 PM 80.6 °F 84.6 °F 71.6 °F 74% 29.80 in 10.0 mi SSW 12.7 mph - 0.00 in   Scattered Clouds
5:00 PM 77.0 °F - 64.4 °F 65% 29.80 in 10.0 mi South 9.2 mph 18.4 mph 0.00 in   Partly Cloudy
5:20 PM 75.2 °F - 62.6 °F 65% 29.83 in 10.0 mi SSW 10.4 mph - 0.00 in   Clear
5:40 PM 77.0 °F - 64.4 °F 65% 29.81 in 10.0 mi South 9.2 mph - 0.00 in   Clear
6:00 PM 75.2 °F - 64.4 °F 69% 29.80 in 10.0 mi SSE 8.1 mph - 0.00 in   Clear
6:20 PM 73.4 °F - 64.4 °F 73% 29.80 in 10.0 mi SSE 6.9 mph - 0.00 in   Clear
6:40 PM 71.6 °F - 64.4 °F 78% 29.79 in 10.0 mi SSE 5.8 mph - 0.00 in   Clear
7:00 PM 71.6 °F - 66.2 °F 83% 29.80 in 10.0 mi South 4.6 mph - 0.00 in   Clear
7:20 PM 73.4 °F - 66.2 °F 78% 29.79 in 10.0 mi South 5.8 mph - 0.00 in   Clear
7:40 PM 73.4 °F - 68.0 °F 83% 29.80 in 10.0 mi South 5.8 mph - 0.00 in   Clear
8:00 PM 73.4 °F - 68.0 °F 83% 29.81 in 10.0 mi South 4.6 mph - 0.00 in   Scattered Clouds
8:20 PM 73.4 °F - 66.2 °F 78% 29.79 in 10.0 mi SW 9.2 mph - 0.00 in   Partly Cloudy
8:40 PM 71.6 °F - 68.0 °F 88% 29.80 in 10.0 mi SW 3.5 mph - 0.00 in   Clear
9:00 PM 71.6 °F - 69.8 °F 94% 29.79 in 10.0 mi Calm Calm - 0.00 in   Partly Cloudy
9:20 PM 71.6 °F - 69.8 °F 94% 29.79 in 10.0 mi Calm Calm - 0.00 in   Partly Cloudy
9:40 PM 71.6 °F - 71.6 °F 100% 29.78 in 10.0 mi SE 5.8 mph - 0.00 in   Clear
10:00 PM 71.6 °F - 71.6 °F 100% 29.78 in 10.0 mi SE 4.6 mph - 0.00 in   Clear
10:20 PM 69.8 °F - 69.8 °F 100% 29.78 in 10.0 mi SE 5.8 mph - 0.00 in   Partly Cloudy
10:40 PM 69.8 °F - 69.8 °F 100% 29.78 in 10.0 mi SSE 5.8 mph - 0.00 in   Scattered Clouds
11:00 PM 69.8 °F - 69.8 °F 100% 29.79 in 10.0 mi South 5.8 mph - 0.00 in   Mostly Cloudy
11:20 PM 69.8 °F - 69.8 °F 100% 29.79 in 10.0 mi SSE 6.9 mph - 0.00 in   Scattered Clouds
11:40 PM 69.8 °F - 69.8 °F 100% 29.79 in 10.0 mi SSE 6.9 mph - 0.00 in   Mostly Cloudy